Location: Pontbriand
(46.1542°N, 71.2542°W)
Time: 10:00:33
(UTC+00:00)

Envisat - Pass Details

Date: 08 October 2022
Orbit: 763 x 765 km, 98.2° (Epoch: 01 December)

Event Time Altitude Azimuth Distance (km) Brightness Sun altitude
Rises 09:11:24 0° 13° (NNE) 3,244 6.6 -18.3°
Reaches altitude 10° 09:13:43 10° 14° (NNE) 2,313 5.8 -17.9°
Maximum altitude 09:18:50 88° 103° (ESE) 773 3.0 -17.0°
Drops below altitude 10° 09:23:55 10° 194° (SSW) 2,295 5.2 -16.1°
Sets 09:26:12 0° 195° (SSW) 3,217 6.0 -15.8°
